Flight Track Log - Related Links

Times and Time Zones

All times are in EDT time to prevent confusion due to time zone crossing. See the PDT4226 flight status page for this flight to view local times or setup timezone preferences in your user account.

Time Position Orientation Groundspeed Altitude Reporting Facility
EDT Latitude Longitude Course Direction KTS MPH feet Rate Location/Type
Wed 12:25:50 PM 39.8833 -75.2333 303° West 126 145 500  Level Philadelphia TRACON
Wed 12:27:20 PM 39.9167 -75.3000 303° West 150 173 2,700 1,440 Climbing Philadelphia TRACON
Wed 12:28:20 PM 39.9333 -75.3500 294° West 148 170 4,100 1,438 Climbing Philadelphia TRACON
Wed 12:29:21 PM 39.9500 -75.4000 294° West 145 167 5,600 1,485 Climbing Philadelphia TRACON
Wed 12:30:01 PM 39.9444 -75.4306 257° West 152 175 6,600 1,366 Climbing New York Center
Wed 12:31:02 PM 39.9486 -75.4797 276° West 147 169 7,900 1,190 Climbing New York Center
Wed 12:32:02 PM 39.9919 -75.4933 346° North 179 206 9,000 559 Climbing New York Center
Wed 12:33:00 PM 40.0497 -75.5083 349° North 224 258 9,000 50 Level New York Center
Wed 12:34:01 PM 40.1117 -75.5233 350° North 244 281 9,100 492 Climbing New York Center
Wed 12:35:02 PM 40.1711 -75.5436 345° North 251 289 10,000 950 Climbing New York Center
Wed 12:36:01 PM 40.2225 -75.5661 342° North 219 252 11,000 1,000 Climbing New York Center
Wed 12:37:02 PM 40.2600 -75.6150 315° West 198 228 12,000 504 Climbing New York Center
Wed 12:38:00 PM 40.3033 -75.6781 312° West 203 234 12,000  Level New York Center
Wed 12:38:59 PM 40.3647 -75.7014 344° North 222 255 12,000  Level New York Center
Wed 12:40:01 PM 40.4289 -75.7142 351° North 228 262 12,000  Level New York Center
Wed 12:41:02 PM 40.4892 -75.7158 359° North 235 270 12,000  Level New York Center
Wed 12:42:00 PM 40.5556 -75.7261 353° North 235 270 12,000  Level New York Center
Wed 12:43:02 PM 40.6281 -75.7367 354° North 235 270 12,000  Level New York Center
Wed 12:44:00 PM 40.6942 -75.7497 351° North 235 270 12,000  Level New York Center
Wed 12:45:01 PM 40.7603 -75.7600 353° North 235 270 12,000  Level New York Center
Wed 12:46:00 PM 40.8208 -75.7617 359° North 235 270 12,000  Level New York Center
Wed 12:47:02 PM 40.8869 -75.7747 352° North 235 270 12,000  Level New York Center
Wed 12:48:00 PM 40.9589 -75.7939 349° North 235 270 12,000  Level New York Center
Wed 12:49:00 PM 41.0256 -75.7989 357° North 240 276 12,000  Level New York Center
Wed 12:50:02 PM 41.0917 -75.8092 353° North 235 270 12,000 -99 Level New York Center
Wed 12:51:01 PM 41.1517 -75.8219 351° North 235 270 11,800 -356 Descending New York Center
Wed 12:52:00 PM 41.2219 -75.8328 353° North 245 282 11,300 -397 Descending New York Center
Wed 12:53:02 PM 41.2925 -75.8381 357° North 252 290 11,000 -150 Descending New York Center
Wed 12:54:00 PM 41.3606 -75.8542 350° North 252 290 11,000 101 Level New York Center
Wed 12:55:01 PM 41.4131 -75.8942 330° Northwest 239 275 11,200  Climbing New York Center
Wed 12:56:02 PM 41.4583 -75.9528 316° Northwest 223 257 11,000 -454 Descending New York Center
Wed 12:57:00 PM 41.5269 -75.9525 360° North 218 251 10,300 -1,109 Descending New York Center
Wed 12:58:01 PM 41.6108 -75.9453 North 256 295 8,800 -1,210 Descending New York Center
Wed 12:58:59 PM 41.6822 -75.9314 North 266 306 7,900 -1,210 Descending New York Center
Wed 01:00:00 PM 41.7497 -75.9089 14° North 251 289 6,400 -1,438 Descending New York Center
Wed 01:01:00 PM 41.8047 -75.8908 14° North 234 269 5,000 -467 Descending New York Center
Wed 01:03:00 PM 41.9317 -75.8447 15° North 223 257 5,000 -298 Level New York Center
Wed 01:04:01 PM 41.9972 -75.8192 16° North 231 266 4,100 -694 Descending New York Center
Wed 01:05:01 PM 42.0519 -75.8067 10° North 215 247 3,600 -300 Descending New York Center
Wed 01:06:01 PM 42.0969 -75.8239 344° North 191 220 3,500 -150 Descending New York Center
Wed 01:07:01 PM 42.1369 -75.8633 324° Northwest 176 203 3,300 -407 Descending New York Center
Wed 01:07:59 PM 42.1589 -75.9322 293° West 176 203 2,700 -605 Descending New York Center
Wed 01:09:00 PM 42.1942 -75.9825 313° West 176 203 2,100 -590 Descending New York Center
Wed 01:10:00 PM 42.2000 -75.9667 North  Level FlightAware Approximate

Login

Don't have an account? Register now (free) for customized features, flight alerts, and more!